Radiation Dose at Monitoring Post of Fukushima Daini Nuclear Power Station
Date,Time,MP-1(microSv/h),MP-2(microSv/h),MP-3(microSv/h),MP-4(microSv/h),MP-5(microSv/h),MP-6(microSv/h),MP-7(microSv/h),Wind Direction,Wind Velocity(m/s),Rain
2024/05/31,00:00,0.143,0.126,0.204,0.193,0.202,0.113,0.073,south,5.1,No
2024/05/31,00:10,0.142,0.127,0.206,0.191,0.202,0.112,0.073,south,5.7,No
2024/05/31,00:20,0.142,0.126,0.206,0.192,0.204,0.114,0.073,south-southeast,4.4,No
2024/05/31,00:30,0.141,0.126,0.206,0.193,0.202,0.113,0.073,south,5.1,No
2024/05/31,00:40,0.143,0.126,0.205,0.192,0.205,0.112,0.073,south,5.5,No
2024/05/31,00:50,0.144,0.126,0.204,0.192,0.203,0.114,0.073,south,7.9,No
2024/05/31,01:00,0.142,0.127,0.206,0.191,0.202,0.113,0.073,south,7.7,No
2024/05/31,01:10,0.143,0.126,0.203,0.194,0.203,0.113,0.072,south,7.1,No
2024/05/31,01:20,0.142,0.127,0.205,0.191,0.202,0.113,0.073,south,7.0,No
2024/05/31,01:30,0.143,0.126,0.205,0.191,0.205,0.112,0.073,south,6.1,No
2024/05/31,01:40,0.142,0.127,0.207,0.193,0.201,0.112,0.072,south,5.4,No
2024/05/31,01:50,0.143,0.126,0.204,0.191,0.203,0.112,0.074,south-southwest,4.3,No
2024/05/31,02:00,0.143,0.127,0.205,0.193,0.203,0.112,0.072,south,3.8,No
2024/05/31,02:10,0.142,0.126,0.204,0.190,0.204,0.113,0.073,south,6.0,No
2024/05/31,02:20,0.144,0.127,0.205,0.192,0.204,0.112,0.073,south,5.0,No
2024/05/31,02:30,0.142,0.126,0.204,0.192,0.202,0.114,0.073,south,5.7,No
2024/05/31,02:40,0.144,0.127,0.205,0.191,0.204,0.114,0.073,south,7.2,Yes
2024/05/31,02:50,0.142,0.126,0.204,0.192,0.202,0.113,0.073,south-southeast,8.1,No
2024/05/31,03:00,0.143,0.126,0.204,0.191,0.203,0.113,0.073,south-southeast,7.0,No
2024/05/31,03:10,0.143,0.127,0.204,0.193,0.203,0.113,0.073,south,6.5,Yes
2024/05/31,03:20,0.143,0.127,0.205,0.192,0.204,0.114,0.073,south,6.4,Yes
2024/05/31,03:30,0.145,0.126,0.206,0.193,0.205,0.112,0.072,south-southeast,8.6,Yes
2024/05/31,03:40,0.142,0.127,0.205,0.192,0.203,0.113,0.073,south,9.8,Yes
2024/05/31,03:50,0.144,0.127,0.206,0.193,0.205,0.113,0.073,south,7.1,Yes
2024/05/31,04:00,0.143,0.127,0.205,0.192,0.203,0.114,0.074,south-southwest,4.9,Yes
2024/05/31,04:10,0.144,0.127,0.206,0.193,0.205,0.114,0.074,south-southwest,5.9,Yes
2024/05/31,04:20,0.142,0.127,0.205,0.193,0.203,0.114,0.075,southwest,4.9,Yes
2024/05/31,04:30,0.144,0.128,0.206,0.193,0.205,0.115,0.074,southwest,4.9,Yes
2024/05/31,04:40,0.144,0.127,0.204,0.194,0.203,0.114,0.074,southwest,4.4,Yes
2024/05/31,04:50,0.144,0.128,0.206,0.193,0.204,0.115,0.075,south-southwest,4.4,Yes
2024/05/31,05:00,0.145,0.127,0.206,0.193,0.204,0.115,0.075,south,4.8,Yes
2024/05/31,05:10,0.144,0.128,0.206,0.194,0.204,0.116,0.075,south-southeast,4.9,Yes
2024/05/31,05:20,0.144,0.127,0.205,0.192,0.204,0.115,0.076,south-southeast,6.2,Yes
2024/05/31,05:30,0.144,0.128,0.205,0.193,0.203,0.116,0.075,south,5.9,Yes
2024/05/31,05:40,0.145,0.128,0.205,0.192,0.204,0.115,0.076,southwest,5.2,Yes
2024/05/31,05:50,0.144,0.128,0.204,0.193,0.203,0.115,0.075,west-southwest,4.2,Yes
2024/05/31,06:00,0.144,0.127,0.206,0.192,0.202,0.115,0.076,west-southwest,4.0,Yes
2024/05/31,06:10,0.144,0.127,0.205,0.193,0.203,0.115,0.075,southwest,3.3,Yes
2024/05/31,06:20,0.144,0.128,0.206,0.192,0.202,0.114,0.075,west-southwest,3.1,Yes
2024/05/31,06:30,0.143,0.127,0.204,0.192,0.204,0.114,0.075,west-southwest,4.0,Yes
2024/05/31,06:40,0.144,0.127,0.205,0.191,0.203,0.114,0.075,southwest,4.1,Yes
2024/05/31,06:50,0.143,0.127,0.202,0.192,0.201,0.114,0.075,southwest,3.3,Yes
2024/05/31,07:00,0.145,0.128,0.205,0.192,0.205,0.115,0.076,south,3.4,Yes
2024/05/31,07:10,0.144,0.128,0.203,0.192,0.202,0.115,0.076,south-southeast,6.0,Yes
2024/05/31,07:20,0.144,0.128,0.205,0.192,0.204,0.115,0.076,south-southeast,8.1,Yes
2024/05/31,07:30,0.143,0.127,0.202,0.191,0.203,0.114,0.076,south-southeast,7.8,Yes
2024/05/31,07:40,0.144,0.128,0.204,0.190,0.203,0.115,0.076,south-southeast,7.8,Yes
2024/05/31,07:50,0.143,0.126,0.202,0.190,0.201,0.114,0.075,south,7.5,Yes
2024/05/31,08:00,0.142,0.127,0.202,0.189,0.202,0.114,0.074,south,5.5,Yes
2024/05/31,08:10,0.143,0.126,0.202,0.189,0.201,0.113,0.075,south-southeast,4.0,Yes
2024/05/31,08:20,0.143,0.127,0.200,0.188,0.201,0.114,0.074,south-southeast,4.9,Yes
2024/05/31,08:30,0.141,0.125,0.202,0.190,0.201,0.113,0.074,south-southeast,6.5,Yes
2024/05/31,08:40,0.142,0.125,0.201,0.190,0.203,0.114,0.074,south-southeast,5.6,Yes
2024/05/31,08:50,0.142,0.127,0.202,0.190,0.200,0.113,0.075,south-southeast,5.5,Yes
2024/05/31,09:00,0.143,0.126,0.201,0.189,0.203,0.114,0.074,south-southeast,6.2,Yes
2024/05/31,09:10,0.142,0.127,0.202,0.190,0.201,0.113,0.074,south-southeast,5.1,Yes
2024/05/31,09:20,0.143,0.127,0.201,0.190,0.201,0.114,0.075,south-southeast,4.6,Yes
2024/05/31,09:30,0.142,0.126,0.201,0.190,0.201,0.114,0.074,southeast,3.9,Yes
2024/05/31,09:40,0.143,0.126,0.200,0.188,0.202,0.114,0.075,southeast,5.0,Yes
2024/05/31,09:50,0.143,0.128,0.201,0.191,0.202,0.114,0.076,east-southeast,6.1,Yes
2024/05/31,10:00,0.143,0.127,0.202,0.189,0.203,0.115,0.076,southeast,3.5,Yes
2024/05/31,10:10,0.143,0.127,0.202,0.190,0.202,0.114,0.077,southeast,4.2,Yes
2024/05/31,10:20,0.144,0.128,0.201,0.189,0.204,0.115,0.077,south-southeast,3.7,Yes
2024/05/31,10:30,0.144,0.128,0.201,0.192,0.203,0.115,0.078,south-southeast,2.6,Yes
2024/05/31,10:40,0.144,0.128,0.203,0.190,0.204,0.115,0.077,south-southeast,2.5,Yes
2024/05/31,10:50,0.143,0.128,0.201,0.191,0.202,0.115,0.077,south-southwest,1.8,Yes
2024/05/31,11:00,0.144,0.127,0.202,0.190,0.203,0.114,0.076,south-southeast,2.0,Yes
2024/05/31,11:10,0.143,0.128,0.201,0.190,0.201,0.114,0.076,south,2.1,Yes
2024/05/31,11:20,0.142,0.127,0.201,0.190,0.205,0.114,0.077,south,1.3,Yes
2024/05/31,11:30,0.144,0.128,0.201,0.189,0.201,0.115,0.076,-,CALM,Yes
2024/05/31,11:40,0.143,0.127,0.201,0.190,0.203,0.114,0.076,west-southwest,0.7,Yes
2024/05/31,11:50,0.144,0.128,0.201,0.188,0.203,0.115,0.077,west,1.0,Yes
2024/05/31,12:00,0.143,0.127,0.202,0.190,0.202,0.115,0.076,west,1.2,Yes
2024/05/31,12:10,0.143,0.128,0.201,0.189,0.203,0.115,0.077,northwest,0.6,Yes
2024/05/31,12:20,0.142,0.126,0.200,0.190,0.200,0.114,0.075,north-northwest,0.8,Yes
2024/05/31,12:30,0.141,0.127,0.201,0.189,0.204,0.113,0.075,northeast,1.2,Yes
2024/05/31,12:40,0.142,0.126,0.200,0.188,0.201,0.114,0.075,north-northwest,1.1,Yes
2024/05/31,12:50,0.141,0.126,0.200,0.188,0.201,0.113,0.075,north-northwest,1.3,Yes
2024/05/31,13:00,0.142,0.126,0.199,0.188,0.201,0.113,0.075,northwest,2.4,Yes
2024/05/31,13:10,0.141,0.126,0.200,0.189,0.201,0.113,0.074,northwest,2.5,Yes
2024/05/31,13:20,0.143,0.128,0.201,0.187,0.204,0.114,0.076,northwest,2.1,Yes
2024/05/31,13:30,0.144,0.129,0.201,0.191,0.202,0.115,0.076,northwest,3.1,Yes
2024/05/31,13:40,0.144,0.129,0.204,0.190,0.205,0.116,0.078,north-northwest,3.2,Yes
2024/05/31,13:50,0.146,0.130,0.202,0.193,0.206,0.116,0.078,northwest,3.9,Yes
2024/05/31,14:00,0.145,0.130,0.204,0.193,0.204,0.116,0.077,northwest,3.5,Yes
2024/05/31,14:10,0.146,0.128,0.204,0.191,0.205,0.115,0.078,north,2.7,Yes
2024/05/31,14:20,0.145,0.130,0.202,0.192,0.203,0.117,0.077,north,2.7,Yes
2024/05/31,14:30,0.145,0.129,0.202,0.191,0.205,0.115,0.078,north,2.4,Yes
2024/05/31,14:40,0.144,0.128,0.201,0.191,0.203,0.114,0.076,north-northeast,3.2,No
2024/05/31,14:50,0.144,0.127,0.202,0.190,0.204,0.114,0.076,north,3.3,No
2024/05/31,15:00,0.143,0.128,0.198,0.189,0.202,0.113,0.075,north,3.6,No
2024/05/31,15:10,0.142,0.126,0.201,0.190,0.200,0.113,0.074,north-northwest,4.1,Yes
2024/05/31,15:20,0.141,0.125,0.199,0.187,0.202,0.111,0.074,north,3.9,Yes
2024/05/31,15:30,0.141,0.126,0.199,0.187,0.200,0.112,0.074,north-northwest,3.6,No
2024/05/31,15:40,0.140,0.124,0.200,0.188,0.200,0.111,0.073,north-northwest,3.9,Yes
2024/05/31,15:50,0.140,0.125,0.197,0.187,0.201,0.111,0.073,north,3.3,Yes
2024/05/31,16:00,0.139,0.125,0.200,0.187,0.199,0.112,0.072,north,4.3,Yes
2024/05/31,16:10,0.141,0.125,0.198,0.186,0.202,0.111,0.072,north,3.8,Yes
2024/05/31,16:20,0.140,0.126,0.198,0.188,0.200,0.111,0.072,north,4.4,Yes
2024/05/31,16:30,0.141,0.124,0.198,0.186,0.201,0.110,0.072,north,4.6,Yes
2024/05/31,16:40,0.141,0.125,0.199,0.187,0.201,0.111,0.073,north-northwest,4.1,Yes
2024/05/31,16:50,0.140,0.124,0.198,0.187,0.200,0.111,0.071,north,5.1,Yes
2024/05/31,17:00,0.141,0.125,0.199,0.186,0.201,0.110,0.072,north,3.7,No
2024/05/31,17:10,0.140,0.124,0.199,0.187,0.199,0.110,0.072,north,4.6,Yes
2024/05/31,17:20,0.140,0.125,0.198,0.185,0.201,0.111,0.072,north,5.6,Yes
2024/05/31,17:30,0.140,0.125,0.199,0.187,0.200,0.110,0.072,north,5.5,Yes
2024/05/31,17:40,0.139,0.124,0.198,0.186,0.202,0.111,0.072,north,5.0,No
2024/05/31,17:50,0.140,0.124,0.198,0.187,0.200,0.110,0.071,north,4.7,Yes
2024/05/31,18:00,0.140,0.124,0.198,0.187,0.201,0.111,0.071,north,5.8,Yes
2024/05/31,18:10,0.141,0.125,0.199,0.187,0.201,0.111,0.072,north,6.7,No
2024/05/31,18:20,0.140,0.124,0.198,0.186,0.200,0.110,0.071,north-northwest,5.6,Yes
2024/05/31,18:30,0.141,0.124,0.198,0.187,0.202,0.111,0.072,north-northwest,5.0,No
2024/05/31,18:40,0.140,0.124,0.198,0.187,0.200,0.110,0.072,north-northwest,4.8,No
2024/05/31,18:50,0.141,0.124,0.198,0.187,0.200,0.110,0.072,north-northwest,5.3,No
2024/05/31,19:00,0.139,0.125,0.198,0.187,0.199,0.111,0.071,north-northwest,5.4,No
2024/05/31,19:10,0.141,0.124,0.199,0.188,0.201,0.111,0.072,north,6.1,No
2024/05/31,19:20,0.140,0.125,0.199,0.187,0.200,0.109,0.072,north-northwest,5.5,No
2024/05/31,19:30,0.140,0.125,0.198,0.188,0.200,0.111,0.071,north-northwest,5.7,Yes
2024/05/31,19:40,0.141,0.124,0.199,0.186,0.200,0.111,0.071,north-northwest,5.4,No
2024/05/31,19:50,0.141,0.124,0.199,0.187,0.201,0.111,0.072,north-northwest,6.3,No
2024/05/31,20:00,0.140,0.124,0.198,0.188,0.199,0.110,0.071,north-northwest,5.8,No
2024/05/31,20:10,0.140,0.124,0.199,0.186,0.202,0.111,0.072,north-northwest,6.0,No
2024/05/31,20:20,0.141,0.124,0.198,0.188,0.199,0.110,0.072,north-northwest,5.7,No
2024/05/31,20:30,0.140,0.124,0.198,0.187,0.201,0.111,0.072,north-northwest,5.7,No
2024/05/31,20:40,0.140,0.125,0.199,0.188,0.199,0.110,0.071,north-northwest,4.9,No
2024/05/31,20:50,0.140,0.124,0.198,0.187,0.202,0.110,0.071,north-northwest,5.3,No
2024/05/31,21:00,0.141,0.125,0.199,0.187,0.199,0.110,0.071,north,6.0,No
2024/05/31,21:10,0.139,0.125,0.198,0.187,0.201,0.111,0.072,north-northwest,5.0,No
2024/05/31,21:20,0.140,0.125,0.200,0.186,0.200,0.111,0.071,north-northwest,4.7,No
2024/05/31,21:30,0.140,0.124,0.198,0.188,0.201,0.111,0.072,north-northwest,4.7,No
2024/05/31,21:40,0.141,0.125,0.200,0.188,0.200,0.111,0.072,north-northwest,4.9,No
2024/05/31,21:50,0.140,0.125,0.198,0.187,0.202,0.111,0.072,north-northwest,5.0,No
2024/05/31,22:00,0.140,0.125,0.200,0.187,0.200,0.111,0.072,north-northwest,4.4,No
2024/05/31,22:10,0.140,0.124,0.198,0.188,0.201,0.111,0.072,north-northwest,3.9,No
2024/05/31,22:20,0.142,0.125,0.199,0.187,0.199,0.111,0.072,north-northwest,4.1,No
2024/05/31,22:30,0.140,0.124,0.199,0.187,0.202,0.111,0.073,north-northwest,3.7,No
2024/05/31,22:40,0.142,0.125,0.199,0.188,0.200,0.111,0.072,north-northwest,4.2,No
2024/05/31,22:50,0.140,0.124,0.199,0.187,0.200,0.111,0.072,north-northwest,4.6,No
2024/05/31,23:00,0.141,0.125,0.199,0.188,0.200,0.111,0.072,north-northwest,4.5,No
2024/05/31,23:10,0.141,0.125,0.199,0.187,0.201,0.111,0.072,north-northwest,4.9,No
2024/05/31,23:20,0.142,0.125,0.199,0.188,0.200,0.111,0.072,north-northwest,3.9,No
2024/05/31,23:30,0.141,0.123,0.200,0.187,0.200,0.111,0.073,north-northwest,3.8,No
2024/05/31,23:40,0.141,0.125,0.199,0.188,0.199,0.110,0.072,north-northwest,3.5,Yes
2024/05/31,23:50,0.140,0.125,0.199,0.188,0.201,0.112,0.072,north-northwest,3.7,Yes
